{"data":{"norad_id":69233,"epoch":"2026-09-19T23:24:01.454976Z","epoch_age_seconds":72272,"freshness":"FRESH","line1":"1 69233U 26115Y   26262.97501684  .00017381  00000+0  53925-3 0  9992","line2":"2 69233  97.2847 279.1338 0001074 103.6162 256.5200 15.33457201 19210","mean_motion":15.33457201,"eccentricity":0.0001074,"inclination_deg":97.2847,"raan_deg":279.1338,"arg_perigee_deg":103.6162,"mean_anomaly_deg":256.52,"bstar":0.00053925,"rev_number":1921,"period_min":93.905457489191,"perigee_km":464.77186577499,"apogee_km":466.24188047893,"semimajor_km":6843.643873127,"source":"CELESTRAK","updated_at":"2026-09-20T09:00:44.106274Z"}}